Location: Bamobli
(6.6379°N, 10.9396°W)
Time: 15:39:03
(UTC+00:00)

N. Korean satellite - Visible Passes

Search period start: 23 June 2021 00:00
Search period end: 03 July 2021 00:00
Orbit: 450 x 499 km, 97.2° (Epoch: 22 June)

Date Brightness Start Highest point End Pass type
(mag) Time Alt. Az. Time Alt. Az. Time Alt. Az.
23 Jun 9.7 04:54:37 10° ENE 04:56:03 12° E 04:57:30 10° ESE visible
24 Jun 6.8 05:58:18 10° N 06:01:51 51° W 06:05:25 10° SSW visible
25 Jun 7.5 05:31:04 10° NNE 05:34:37 50° E 05:38:11 10° S visible
26 Jun 9.3 05:04:49 10° NE 05:07:22 18° E 05:09:56 10° SE visible
28 Jun 6.7 05:42:16 10° NNE 05:45:55 82° ESE 05:49:35 10° S visible
29 Jun 8.7 05:15:31 10° NE 05:18:39 27° E 05:21:48 10° SSE visible
30 Jun 9.9 04:51:10 10° E 04:51:23 10° E 04:51:35 10° ESE visible
01 Jul 6.6 05:53:33 10° N 05:57:10 62° W 06:00:46 10° SSW visible
02 Jul 7.8 05:26:26 10° NNE 05:29:54 42° E 05:33:22 10° S visible
